Weather History for KERY - December, 2012

Change the Weather History Date:

Sunday, December 30, 2012

  Actual Average Record
Temperature  
Mean Temperature 22 °F -  
Max Temperature 26 °F 24 °F 44 °F (1936)
Min Temperature 17 °F 7 °F -14 °F (1976)
Degree Days  
Heating Degree Days 44    
Moisture  
Dew Point 18 °F    
Average Humidity 85    
Maximum Humidity 93    
Minimum Humidity 64    
Precipitation  
Precipitation 0.00 in - - ()
Sea Level Pressure  
Sea Level Pressure 30.04 in    
Wind  
Wind Speed 8 mph (SW)    
Max Wind Speed 15 mph    
Max Gust Speed 21 mph    
Visibility 10 miles    
Events Snow    
Averages and records for this station are not official NWS values.
T = Trace of Precipitation, MM = Missing Value Source: NWS Daily Summary

Daily Weather History Graph

Daily Weather History Graph

Search for Another Location

Airport or City:

Trip Planner

Search our weather history database for the weather conditions in past years. The results will help you decide how hot, cold, wet, or windy it might be!

Date:

Astronomy

Dec. 30, 2012 Rise Set
Actual Time 8:24 AM EST 5:04 PM EST
Civil Twilight 7:50 AM EST 5:39 PM EST
Nautical Twilight 7:12 AM EST 6:17 PM EST
Astronomical Twilight 6:35 AM EST 6:54 PM EST
Moon 7:44 PM EST 9:25 AM EST
Length of Visible Light 9h 49m
Length of Day
8h 39m
Waning Gibbous, 95% of the Moon is Illuminated
Dec 30
Waning Gibbous
Jan 4
Last Quarter
Jan 11
New
Jan 18
First Quarter
Jan 26
Full

Hourly Weather History & Observations

Time (EST) Temp. Windchill Dew Point Humidity Pressure Visibility Wind Dir Wind Speed Gust Speed Precip Events Conditions
12:14 AM 21.2 °F 14.9 °F 19.4 °F 93% 30.00 in 10.0 mi WSW 4.6 mph - N/A Snow Light Snow
12:34 AM 21.2 °F 13.6 °F 19.4 °F 93% 30.00 in 10.0 mi WSW 5.8 mph - N/A   Overcast
12:55 AM 21.2 °F 13.6 °F 19.4 °F 93% 29.99 in 10.0 mi WSW 5.8 mph - N/A Snow Light Snow
1:14 AM 21.2 °F 13.6 °F 19.4 °F 93% 30.00 in 10.0 mi WSW 5.8 mph - N/A   Overcast
1:35 AM 21.2 °F 14.9 °F 19.4 °F 93% 30.00 in 10.0 mi SW 4.6 mph - N/A   Overcast
1:55 AM 21.2 °F 16.4 °F 19.4 °F 93% 30.00 in 10.0 mi SW 3.5 mph - N/A   Overcast
2:14 AM 21.2 °F 12.6 °F 19.4 °F 93% 30.01 in 10.0 mi SW 6.9 mph - N/A   Overcast
2:35 AM 21.2 °F 11.7 °F 19.4 °F 93% 30.02 in 10.0 mi WSW 8.1 mph - N/A   Mostly Cloudy
2:55 AM 19.4 °F 10.4 °F 17.6 °F 93% 30.03 in 10.0 mi WSW 6.9 mph - N/A   Mostly Cloudy
3:14 AM 21.2 °F 13.6 °F 19.4 °F 93% 30.03 in 10.0 mi SW 5.8 mph - N/A   Overcast
3:35 AM 21.2 °F 13.6 °F 19.4 °F 93% 30.03 in 10.0 mi SW 5.8 mph - N/A   Overcast
3:55 AM 21.2 °F 13.6 °F 19.4 °F 93% 30.04 in 10.0 mi WSW 5.8 mph - N/A   Overcast
4:14 AM 21.2 °F 11.7 °F 19.4 °F 93% 30.04 in 10.0 mi West 8.1 mph - N/A   Overcast
4:35 AM 21.2 °F 12.6 °F 19.4 °F 93% 30.05 in 10.0 mi SW 6.9 mph - N/A   Overcast
4:54 AM 21.2 °F 12.6 °F 19.4 °F 93% 30.05 in 10.0 mi WSW 6.9 mph - N/A   Overcast
5:14 AM 21.2 °F 12.6 °F 19.4 °F 93% 30.05 in 10.0 mi West 6.9 mph - N/A   Overcast
5:35 AM 21.2 °F 11.7 °F 17.6 °F 86% 30.05 in 10.0 mi West 8.1 mph - N/A   Overcast
5:54 AM 21.2 °F 12.6 °F 17.6 °F 86% 30.06 in 10.0 mi WSW 6.9 mph - N/A   Overcast
6:15 AM 21.2 °F 10.1 °F 17.6 °F 86% 30.07 in 10.0 mi West 10.4 mph - N/A   Overcast
6:35 AM 21.2 °F 13.6 °F 17.6 °F 86% 30.07 in 10.0 mi WSW 5.8 mph - N/A   Overcast
6:54 AM 21.2 °F 13.6 °F 17.6 °F 86% 30.08 in 10.0 mi WSW 5.8 mph - N/A   Overcast
7:15 AM 21.2 °F 13.6 °F 17.6 °F 86% 30.08 in 10.0 mi SW 5.8 mph - N/A   Overcast
7:35 AM 21.2 °F 12.6 °F 17.6 °F 86% 30.10 in 10.0 mi SW 6.9 mph - N/A   Overcast
7:54 AM 21.2 °F 12.6 °F 17.6 °F 86% 30.10 in 10.0 mi SW 6.9 mph - N/A   Overcast
8:15 AM 19.4 °F 11.5 °F 17.6 °F 93% 30.10 in 10.0 mi SW 5.8 mph - N/A   Mostly Cloudy
8:35 AM 19.4 °F 10.4 °F 15.8 °F 86% 30.10 in 10.0 mi SW 6.9 mph - N/A   Mostly Cloudy
8:54 AM 17.6 °F 5.7 °F 15.8 °F 93% 30.10 in 10.0 mi SSW 10.4 mph - N/A   Scattered Clouds
9:15 AM 19.4 °F 8.6 °F 15.8 °F 86% 30.10 in 10.0 mi SW 9.2 mph - N/A   Clear
9:34 AM 19.4 °F 9.5 °F 15.8 °F 86% 30.10 in 10.0 mi SW 8.1 mph - N/A   Clear
9:54 AM 21.2 °F 10.1 °F 15.8 °F 80% 30.11 in 10.0 mi SW 10.4 mph - N/A   Mostly Cloudy
10:15 AM 21.2 °F 10.1 °F 15.8 °F 80% 30.11 in 10.0 mi WSW 10.4 mph - N/A   Overcast
10:34 AM 21.2 °F 10.9 °F 17.6 °F 86% 30.11 in 10.0 mi SW 9.2 mph - N/A   Overcast
10:55 AM 23.0 °F 11.1 °F 17.6 °F 80% 30.12 in 10.0 mi WSW 12.7 mph - N/A   Overcast
11:14 AM 23.0 °F 11.7 °F 15.8 °F 74% 30.12 in 10.0 mi SW 11.5 mph - N/A   Overcast
11:34 AM 23.0 °F 12.4 °F 15.8 °F 74% 30.11 in 10.0 mi WSW 10.4 mph - N/A   Overcast
11:55 AM 23.0 °F 10.6 °F 15.8 °F 74% 30.11 in 10.0 mi WSW 13.8 mph - N/A   Overcast
12:14 PM 23.0 °F 12.4 °F 15.8 °F 74% 30.11 in 10.0 mi SW 10.4 mph - N/A   Overcast
12:35 PM 24.8 °F 14.6 °F 15.8 °F 69% 30.10 in 10.0 mi SW 10.4 mph - N/A   Overcast
12:55 PM 24.8 °F 16.1 °F 17.6 °F 74% 30.10 in 10.0 mi WSW 8.1 mph - N/A   Overcast
1:14 PM 24.8 °F 17.9 °F 15.8 °F 69% 30.09 in 10.0 mi SW 5.8 mph - N/A   Mostly Cloudy
1:35 PM 26.6 °F 19.1 °F 17.6 °F 69% 30.08 in 10.0 mi WSW 6.9 mph - N/A   Scattered Clouds
1:55 PM 26.6 °F 17.5 °F 15.8 °F 64% 30.08 in 10.0 mi SSW 9.2 mph - N/A   Mostly Cloudy
2:14 PM 26.6 °F 15.7 °F 15.8 °F 64% 30.08 in 10.0 mi SSW 12.7 mph - N/A   Scattered Clouds
2:35 PM 24.8 °F 13.4 °F 15.8 °F 69% 30.07 in 10.0 mi SSW 12.7 mph - N/A   Clear
2:55 PM 24.8 °F 14.6 °F 15.8 °F 69% 30.07 in 10.0 mi South 10.4 mph - N/A   Clear
3:14 PM 24.8 °F 14.6 °F 15.8 °F 69% 30.07 in 10.0 mi South 10.4 mph - N/A   Clear
3:35 PM 23.0 °F 11.7 °F 15.8 °F 74% 30.08 in 10.0 mi SSW 11.5 mph - N/A   Clear
3:54 PM 23.0 °F 11.7 °F 15.8 °F 74% 30.07 in 10.0 mi SSW 11.5 mph - N/A   Scattered Clouds
4:14 PM 23.0 °F 12.4 °F 17.6 °F 80% 30.06 in 10.0 mi SSW 10.4 mph - N/A   Mostly Cloudy
4:35 PM 23.0 °F 13.1 °F 17.6 °F 80% 30.06 in 10.0 mi SW 9.2 mph 20.7 mph N/A   Overcast
4:54 PM 23.0 °F 12.4 °F 17.6 °F 80% 30.05 in 10.0 mi SSW 10.4 mph - N/A   Overcast
5:15 PM 21.2 °F 8.9 °F 17.6 °F 86% 30.05 in 10.0 mi SSW 12.7 mph - N/A   Overcast
5:40 PM 23.0 °F 11.7 °F 17.6 °F 80% 30.04 in 10.0 mi SSW 11.5 mph 18.4 mph N/A   Overcast
5:59 PM 21.2 °F 10.1 °F 19.4 °F 93% 30.03 in 10.0 mi SSW 10.4 mph - N/A   Overcast
6:35 PM 23.0 °F 12.4 °F 19.4 °F 86% 30.03 in 10.0 mi SSW 10.4 mph - N/A   Overcast
6:54 PM 23.0 °F 12.4 °F 19.4 °F 86% 30.02 in 10.0 mi SSW 10.4 mph - N/A   Overcast
7:15 PM 21.2 °F 10.9 °F 19.4 °F 93% 30.02 in 10.0 mi SSW 9.2 mph - N/A   Overcast
7:34 PM 23.0 °F 12.4 °F 19.4 °F 86% 30.01 in 10.0 mi SSW 10.4 mph - N/A   Overcast
7:54 PM 23.0 °F 14.7 °F 19.4 °F 86% 30.00 in 10.0 mi SW 6.9 mph - N/A   Overcast
8:15 PM 23.0 °F 14.7 °F 19.4 °F 86% 30.00 in 10.0 mi SW 6.9 mph - N/A   Overcast
8:34 PM 21.2 °F 14.9 °F 19.4 °F 93% 29.99 in 10.0 mi SSW 4.6 mph - N/A   Overcast
8:55 PM 21.2 °F 13.6 °F 19.4 °F 93% 29.99 in 10.0 mi SW 5.8 mph - N/A   Overcast
9:15 PM 21.2 °F 10.9 °F 19.4 °F 93% 29.97 in 10.0 mi SSW 9.2 mph - N/A   Overcast
9:34 PM 23.0 °F 13.1 °F 19.4 °F 86% 29.96 in 10.0 mi SSW 9.2 mph 16.1 mph N/A   Overcast
9:55 PM 24.8 °F 14.0 °F 21.2 °F 86% 29.96 in 10.0 mi SSW 11.5 mph 16.1 mph N/A   Overcast
10:15 PM 24.8 °F 14.0 °F 21.2 °F 86% 29.95 in 10.0 mi SSW 11.5 mph - N/A   Overcast
10:55 PM 26.6 °F 17.5 °F 23.0 °F 86% 29.93 in 7.0 mi South 9.2 mph 17.3 mph N/A   Overcast
11:14 PM 26.6 °F 16.8 °F 24.8 °F 93% 29.91 in 7.0 mi South 10.4 mph - N/A   Overcast
11:34 PM 26.6 °F 15.7 °F 24.8 °F 93% 29.90 in 7.0 mi South 12.7 mph - N/A   Overcast
11:55 PM 26.6 °F 14.7 °F 24.8 °F 93% 29.90 in 7.0 mi SSW 15.0 mph 19.6 mph N/A   Overcast